Location: Wingville
(42.9917°N, 90.4915°W)
Time: 18:48:54
(UTC+00:00)

YUBILEINY - Pass Details

Date: 06 July 2022
Orbit: 1478 x 1509 km, 82.5° (Epoch: 08 August)

Event Time Altitude Azimuth Distance (km) Brightness Sun altitude
Rises 07:32:15 0° 1° (N) 4,648 ? -21.4°
Reaches altitude 10° 07:37:13 10° 25° (NNE) 3,656 ? -21.1°
Maximum altitude 07:41:34 14° 55° (NE) 3,311 ? -20.8°
Drops below altitude 10° 07:45:53 10° 86° (E) 3,636 ? -20.5°
Sets 07:50:44 0° 109° (ESE) 4,605 ? -20.1°
